User: anonymous   Login
Location: Mohawk View
(42.7837°N, 73.7885°W)
Time: 16:54:51
(UTC+00:00)
Language:

Meteor 1-29 - Orbit

View from above orbital plane
View from above orbital plane
View from above satellite
View from above satellite

Ground track
Ground track

The orbit data is extracted from the following two-line orbital elements,

1 11251U 79005A   21259.39410421  .00002546  00000-0  65175-4 0  9999
2 11251  97.6883 209.4890 0013169 295.1285  64.8593 15.40368037878215
Epoch (UTC): 16 September 2021 09:27:30
Eccentricity: 0.0013169
inclination: 97.6883°
perigee height: 436 km
apogee height: 454 km
right ascension of ascending node: 209.4890°
argument of perigee: 295.1285°
revolutions per day: 15.40368037
mean anomaly at epoch: 64.8593°
orbit number at epoch: 87821

The dashed part of the orbit path shows where the satellite is in the earth's shadow,  

DLR